sat.trackr.live / text

‹ back to catalog

STARLINK-2722

NORAD 48472 · 2021-040AW

PAYLOAD ACTIVE UNKNOWN

§ Identity

Operator
Country
US
Launch date
2021-05-09
Launch site
AFETR
Launch vehicle
Mass (kg)
RCS (m²)

Purposes: comms

External: N2YO · Heavens-Above · Gunter

§ Orbital elements

Epoch: 2026-05-25T04:49:22.924992Z

Period
95.28 min
Inclination
53.0597°
Eccentricity
0.0001903
Mean motion
15.11348805 rev/d
Perigee alt
530.8 km
Apogee alt
533.4 km
Semi-major
6,910.2 km
B*
9.8936e-4
RAAN
206.2418°
Arg perigee
353.0713°
Mean anomaly
7.0252°
Rev number
27,804

§ Raw data

STARLINK-27221 48472U 21040AW  26145.20095978  .00016619  00000+0  98936-3 0  99902 48472  53.0597 206.2418 0001903 353.0713   7.0252 15.11348805278047

JSON: /api/v1/satellites/48472 · /tle

For live sub-satellite position, see the globe view (requires WebGL).

§ Visibility from observer

Set your observer location to see the next 7 days of passes ≥ 10°. The values pass through the URL so the page stays shareable.

No JS? Fill the form by hand. The geolocation button needs JavaScript.